[[{"header":{"parameterUnit":"m.s-1","parameterCategory":1,"la1":30.2991,"la2":30.254,"lo1":-89.0895,"lo2":-89.0444,"dy":0.0017,"dx":0.0017,"nx":28,"ny":28,"refTime":"2025-06-06T09:00:00:Z","depth":0,"parameterNumber":2,"parameterNumberName":"U-component_of_WINDS"},"data":[0,0,0,0,0,0,0,0,0,0,0,0,0,0,0,0,0,0,0,0,0,0,0,0,0,0,0,0,0,0,0,0,0,0,0,0,0,0,0,0,0,0,0,0,0,0,0,0,0,0,0,0,0,0,0,0,0,0,4.0657,4.0659,0,4.0841,4.0843,4.0845,4.0828,4.0826,4.0823,4.082,4.1012,4.102,4.1027,0,0,0,0,0,0,0,0,0,0,0,0,0,4.0291,4.0298,4.0657,4.0659,4.0661,4.0841,4.0843,4.0846,4.0829,4.0825,4.0822,4.0819,4.101,4.1019,4.1028,0,0,0,0,0,0,0,0,0,0,0,0,0,4.046,4.03,4.0656,4.0674,4.0678,4.084,4.0843,4.0847,4.083,4.0825,4.0821,4.0817,4.1006,4.1018,4.1029,4.1187,0,0,4.1065,4.107,0,0,0,0,0,0,0,0,4.0451,4.0474,4.067,4.0674,4.0678,4.0807,4.0785,4.0961,4.0831,4.0772,4.082,4.0815,4.0948,4.0964,4.1008,4.1196,4.1204,4.1066,4.1073,4.1078,4.1081,0,0,0,0,0,0,0,4.0439,4.0466,4.073,4.0672,4.0677,4.0674,4.0693,4.0818,4.0882,4.0777,4.0776,4.0798,4.0949,4.0997,4.1012,4.1207,4.1066,4.1076,4.1083,4.1088,4.153,4.1535,0,0,0,0,0,0,4.0423,4.0456,4.0724,4.0735,4.0551,4.0684,4.0705,4.077,4.088,4.0893,4.0801,4.0797,4.0979,4.0999,4.1019,4.1209,4.1078,4.1089,4.1096,4.1525,4.1531,4.1536,0,0,0,0,0,0,4.0415,4.0447,4.0716,4.0596,4.063,4.0695,4.0767,4.0776,4.0824,4.0899,4.091,4.0838,4.0976,4.1003,4.1144,4.1215,4.1094,4.1105,4.152,4.1527,4.1534,4.159,0,0,0,0,0,0,4.0405,4.0444,4.0505,4.0597,4.0636,4.0839,4.0772,4.0783,4.0843,4.0839,4.0936,4.0949,4.0975,4.1127,4.1156,4.1229,4.1114,4.1514,4.1523,4.1531,4.1582,4.1598,4.1612,0,0,0,0,0,4.0392,4.0514,4.0508,4.054,4.0713,4.0843,4.0865,4.0892,4.0849,4.091,4.0958,4.0945,4.1203,4.1142,4.1174,4.1252,4.1509,4.152,4.1531,4.1576,4.1595,4.1612,0,0,0,0,0,0,4.043,4.0527,4.0521,4.0677,4.0751,4.0839,4.0917,4.0912,4.1002,4.0994,4.1024,4.1047,4.1189,4.1235,4.1165,4.1408,4.135,4.1368,4.1373,4.1393,4.1407,4.1393,4.1123,0,0,0,0,0,4.0457,4.0553,4.0633,4.0763,4.0801,4.0853,4.091,4.0924,4.1003,4.1035,4.1094,4.1171,4.1269,4.1334,4.1428,4.1589,4.1609,4.1658,4.1673,4.1685,4.17,4.1786,4.1808,4.1571,4.1571,4.1571,0,0,4.0513,4.0578,4.0637,4.0772,4.0832,4.0931,4.0879,4.0988,4.1062,4.1052,4.1188,4.1234,4.1323,4.1474,4.1543,4.1516,4.1769,4.1698,4.1707,4.1716,4.1799,4.1821,4.1841,4.1579,4.1577,4.1576,0,0,4.0666,4.0725,4.0838,4.0898,4.0988,4.1022,4.1049,4.1138,4.1167,4.1304,4.1298,4.1387,4.1556,4.1618,4.1673,4.1846,4.1838,4.1876,4.1954,4.2038,4.2057,4.2073,4.2134,4.2156,4.1891,4.1891,4.1891,0,4.0724,4.0873,4.0898,4.1006,4.1065,4.1059,4.1174,4.1232,4.1349,4.139,4.1357,4.1567,4.1627,4.1791,4.1833,4.1878,4.1909,4.1865,4.2052,4.2069,4.2085,4.2143,4.2166,4.1895,4.1895,4.1894,4.1894,0,4.094,4.1044,4.1125,4.1235,4.1304,4.1415,4.1456,4.1523,4.153,4.1567,4.1705,4.1776,4.1884,4.1924,4.1934,4.209,4.207,4.2045,4.1987,4.2111,4.2166,4.2189,4.1901,4.19,4.1898,4.1897,0,0,4.1124,4.1245,4.1274,4.1323,4.1421,4.1501,4.1612,4.1715,4.1771,4.1851,4.1944,4.2086,4.2062,4.2123,4.214,4.2213,4.2344,4.2179,4.2181,4.2206,4.2519,4.2537,4.2562,4.2339,4.2343,4.2347,4.2511,0,4.1286,4.148,4.1504,4.1677,4.1771,4.1766,4.1862,4.1932,4.1969,4.2055,4.2096,4.2195,4.2157,4.2194,4.2266,4.2313,4.2407,4.2301,4.2425,4.2429,4.2402,4.2591,4.2611,4.2763,4.2533,4.2536,4.2539,0,4.1501,4.1584,4.1766,4.1848,4.1889,4.1974,4.207,4.2153,4.2232,4.2253,4.232,4.2326,4.244,4.2377,4.2534,4.2461,4.2514,4.2544,4.255,4.2563,4.2491,4.2608,4.2812,4.2834,4.2574,4.2571,4.2568,0,4.1614,4.1773,4.1901,4.1944,4.2043,4.2103,4.2148,4.2222,4.2282,4.2366,4.2405,4.2502,4.2555,4.263,4.2662,4.2614,4.2817,4.2757,4.2837,4.2837,4.288,4.2877,4.3095,4.2915,4.2915,4.2914,4.2914,0,4.1792,4.1903,4.1953,4.2032,4.2156,4.2183,4.2305,4.2347,4.2413,4.25,4.2502,4.2583,4.2621,4.2708,4.2734,4.2859,4.2884,4.2904,4.291,4.2904,4.2901,4.2938,4.2928,4.2921,4.2919,4.2918,4.2917,0,4.194,4.1979,4.2118,4.22,4.2223,4.231,4.238,4.2457,4.2491,4.2601,4.2629,4.2684,4.2787,4.2826,4.2953,4.297,4.3114,4.3111,4.3087,4.3088,4.3166,4.3157,4.3415,4.3449,4.3247,4.3249,4.325,0,4.2051,4.2136,4.2225,4.2283,4.2329,4.2422,4.2482,4.2511,4.2574,4.2669,4.2734,4.2836,4.2919,4.3084,4.3136,4.3232,4.3231,4.3314,4.3246,4.3236,4.3231,4.3225,4.3233,4.3327,4.3329,4.3331,4.3332,0,4.2242,4.2256,4.2343,4.2436,4.2507,4.2582,4.2655,4.2702,4.2742,4.2813,4.2917,4.2981,4.3108,4.3209,4.3307,4.3354,4.335,4.3353,4.3377,4.3371,4.3353,4.3363,4.312,4.3347,4.3346,4.3345,4.3344,4.3343,4.2375,4.2449,4.2523,4.2619,4.2676,4.2743,4.2818,4.2861,4.2948,4.3053,4.3065,4.3176,4.3251,4.3382,4.3433,4.352,4.3498,4.3533,4.3541,4.3549,4.3554,4.3339,4.3539,4.3538,4.3538,4.3538,4.3537,0,4.2565,4.2612,4.2699,4.28,4.2875,4.2863,4.2942,4.3006,4.3103,4.3173,4.3254,4.3373,4.347,4.3528,4.3626,4.3685,4.3686,4.371,4.3705,4.3716,4.3569,4.3538,4.3707,4.3707,4.3707,4.3707,4.3707,4.3707,4.2673,4.2797,4.282,4.2972,4.3018,4.3126,4.3172,4.3234,4.3289,4.3421,4.3501,4.3538,4.3603,4.3705,4.3794,4.3808,4.3844,4.387,4.3882,4.3744,4.3726,4.371,4.3681,4.3877,4.3878,4.4022,4.4023,4.4024]},{"header":{"parameterUnit":"m.s-1","parameterCategory":1,"la1":30.2991,"la2":30.254,"lo1":-89.0895,"lo2":-89.0444,"dy":0.0017,"dx":0.0017,"nx":28,"ny":28,"refTime":"2025-06-06T09:00:00:Z","depth":0,"parameterNumber":3,"parameterNumberName":"V-component_of_WINDS"},"data":[0,0,0,0,0,0,0,0,0,0,0,0,0,0,0,0,0,0,0,0,0,0,0,0,0,0,0,0,0,0,0,0,0,0,0,0,0,0,0,0,0,0,0,0,0,0,0,0,0,0,0,0,0,0,0,0,0,0,5.7012,5.7013,0,5.712,5.7121,5.7122,5.7071,5.7068,5.7066,5.7063,5.7168,5.7173,5.7178,0,0,0,0,0,0,0,0,0,0,0,0,0,5.6757,5.6762,5.7012,5.7014,5.7015,5.7119,5.7121,5.7122,5.7072,5.7068,5.7065,5.7062,5.7166,5.7172,5.7178,0,0,0,0,0,0,0,0,0,0,0,0,0,5.6866,5.6763,5.7012,5.7002,5.7003,5.7119,5.7121,5.7123,5.7072,5.7068,5.7064,5.706,5.7164,5.7171,5.7179,5.731,0,0,5.7204,5.7207,0,0,0,0,0,0,0,0,5.686,5.6875,5.7002,5.7003,5.7004,5.7078,5.7069,5.7185,5.7073,5.7046,5.7063,5.7058,5.7141,5.715,5.7179,5.7315,5.7319,5.7204,5.7209,5.7213,5.7215,0,0,0,0,0,0,0,5.6852,5.6871,5.7054,5.7004,5.7005,5.699,5.7001,5.7091,5.7114,5.7048,5.7044,5.7058,5.714,5.7172,5.7181,5.7321,5.7204,5.7211,5.7216,5.7219,5.7566,5.757,0,0,0,0,0,0,5.6846,5.6865,5.7051,5.7058,5.6921,5.6998,5.7011,5.7058,5.7113,5.7118,5.7061,5.7055,5.716,5.7172,5.7185,5.734,5.7213,5.722,5.7225,5.7562,5.7567,5.7572,0,0,0,0,0,0,5.6841,5.6863,5.7047,5.696,5.6983,5.7007,5.7061,5.7062,5.7094,5.7124,5.7127,5.709,5.7157,5.7173,5.7279,5.7343,5.7224,5.7231,5.7557,5.7564,5.757,5.7652,0,0,0,0,0,0,5.6834,5.6862,5.6913,5.6962,5.6987,5.7142,5.7065,5.7067,5.7108,5.7101,5.7151,5.7155,5.7155,5.7267,5.7287,5.7352,5.7237,5.7551,5.756,5.7568,5.7644,5.7661,5.7675,0,0,0,0,0,5.6825,5.6931,5.6916,5.6939,5.7053,5.7145,5.716,5.7159,5.7114,5.7165,5.7183,5.7154,5.7333,5.7279,5.73,5.7368,5.7547,5.7557,5.7567,5.7637,5.7658,5.7675,0,0,0,0,0,0,5.6888,5.6938,5.6921,5.7047,5.7093,5.7137,5.7201,5.7181,5.7239,5.723,5.7225,5.7236,5.7345,5.7367,5.7306,5.7496,5.7433,5.7447,5.7478,5.7498,5.7514,5.7506,5.7244,0,0,0,0,0,5.6917,5.699,5.7029,5.7136,5.716,5.7177,5.7217,5.7212,5.7258,5.7277,5.7304,5.7348,5.7413,5.7457,5.7519,5.7647,5.7655,5.7704,5.7719,5.7732,5.7745,5.7812,5.7833,5.7605,5.7605,5.7605,0,0,5.6977,5.7013,5.7059,5.715,5.7184,5.7258,5.7193,5.7274,5.7328,5.7288,5.739,5.7411,5.746,5.7576,5.7629,5.7598,5.781,5.7745,5.7755,5.7761,5.7824,5.7846,5.7865,5.7612,5.761,5.7609,0,0,5.7123,5.7159,5.7252,5.7288,5.7342,5.7352,5.7374,5.7421,5.7434,5.7536,5.7508,5.757,5.7685,5.772,5.7753,5.7912,5.7886,5.7932,5.8014,5.8079,5.8097,5.8113,5.8168,5.8188,5.7944,5.7945,5.7945,0,5.7191,5.7303,5.7301,5.7385,5.7424,5.7393,5.7486,5.752,5.7591,5.7618,5.7582,5.7724,5.7755,5.7878,5.7917,5.7945,5.7968,5.7926,5.8095,5.8111,5.8126,5.8178,5.8199,5.795,5.7949,5.7949,5.7948,0,5.7382,5.7459,5.7527,5.7598,5.7645,5.7733,5.7742,5.779,5.7781,5.7794,5.7897,5.7933,5.8001,5.803,5.8021,5.8152,5.8131,5.8095,5.8031,5.8153,5.8202,5.8222,5.7957,5.7955,5.7954,5.7952,0,0,5.7572,5.764,5.7665,5.7696,5.7752,5.7811,5.7896,5.7964,5.8004,5.8054,5.8123,5.822,5.8187,5.8225,5.8219,5.8277,5.8398,5.8234,5.8235,5.8262,5.8542,5.8568,5.8591,5.8382,5.8385,5.8388,5.8537,0,5.7722,5.7873,5.7873,5.8011,5.8082,5.8052,5.8126,5.8167,5.8181,5.8241,5.8256,5.8324,5.8277,5.8299,5.8355,5.8372,5.8454,5.8361,5.8444,5.8447,5.8432,5.8617,5.8645,5.8784,5.8557,5.856,5.8562,0,5.7917,5.7974,5.812,5.8164,5.8194,5.826,5.8322,5.8381,5.8426,5.8432,5.8473,5.8459,5.8542,5.8476,5.859,5.8527,5.856,5.8574,5.8579,5.8586,5.8512,5.8628,5.8828,5.8849,5.8593,5.859,5.8588,0,5.8039,5.8152,5.8254,5.8281,5.8336,5.8383,5.8408,5.8449,5.849,5.8543,5.8569,5.863,5.8664,5.8711,5.8712,5.8664,5.8827,5.8761,5.8832,5.8832,5.8867,5.8865,5.9075,5.8891,5.8891,5.889,5.889,0,5.8206,5.8296,5.8309,5.8372,5.847,5.8469,5.8566,5.8586,5.8623,5.8687,5.8665,5.8724,5.8724,5.8784,5.8785,5.8878,5.8894,5.8899,5.8898,5.8901,5.89,5.8922,5.8912,5.8896,5.8894,5.8893,5.8892,0,5.836,5.8373,5.8481,5.8524,5.8537,5.8608,5.8644,5.8702,5.8714,5.8794,5.8813,5.8831,5.8901,5.8907,5.8988,5.8989,5.9101,5.909,5.9086,5.9084,5.9155,5.9147,5.9385,5.9416,5.9213,5.9215,5.9216,0,5.8465,5.8534,5.8585,5.8627,5.8654,5.8722,5.8764,5.8764,5.8808,5.8864,5.8914,5.8982,5.9036,5.9148,5.9167,5.9228,5.9217,5.9297,5.9226,5.9226,5.9217,5.9213,5.9219,5.931,5.9312,5.9314,5.9315,0,5.865,5.8653,5.8715,5.8779,5.8829,5.8879,5.8925,5.896,5.8966,5.9016,5.9087,5.913,5.9212,5.9279,5.9338,5.936,5.9339,5.9338,5.9357,5.936,5.9354,5.9357,5.9122,5.9332,5.933,5.9329,5.9328,5.9328,5.8782,5.8841,5.8886,5.8955,5.899,5.9034,5.909,5.9109,5.917,5.9238,5.9234,5.9313,5.9354,5.9432,5.9459,5.9518,5.9492,5.952,5.9527,5.9534,5.9541,5.9346,5.9529,5.9529,5.9528,5.9528,5.9528,0,5.8965,5.8992,5.9056,5.9122,5.9176,5.9152,5.9202,5.9248,5.9318,5.9359,5.9413,5.9494,5.9558,5.9582,5.9644,5.9687,5.9679,5.9703,5.97,5.9705,5.9562,5.9538,5.9709,5.9709,5.9709,5.9709,5.9709,5.9709,5.9066,5.9165,5.9172,5.9287,5.9313,5.9391,5.9421,5.9461,5.9493,5.9586,5.964,5.9655,5.9689,5.9753,5.981,5.9815,5.9838,5.9867,5.9868,5.9734,5.9715,5.9698,5.9676,5.9873,5.9873,6.0006,6.0007,6.0008]}]]